• In Hungary
  • List of Countries
  • For 7 days
  • Water Temperature
  • Satellite Maps
  • Weather Map
  • News
  • Weather Widgets
  • user-avatar
    Login

    Hourly Weather Kamionki

    Today, 20 January, Saturday

    Time Temperature Precipitation Wind Pressure Humidity
    00:00 -1°C° 0 mm 1 mps 720 mmHg 86%
    01:00 -1°C° 0 mm 1 mps 720 mmHg 86%
    02:00 -1°C° 0 mm 1 mps 720 mmHg 86%
    03:00 -1°C° 0 mm 1 mps 720 mmHg 86%
    04:00 -2°C° 0 mm 1 mps 720 mmHg 86%
    05:00 -2°C° 0 mm 1 mps 720 mmHg 86%
    06:00 -2°C° 0 mm 1 mps 720 mmHg 86%
    07:00 -2°C° 0 mm 1 mps 720 mmHg 86%
    08:00 -1°C° 0 mm 1 mps 720 mmHg 82%
    09:00 0°C° 0 mm 1 mps 720 mmHg 77%
    10:00 +1°C° 0 mm 1 mps 720 mmHg 73%
    11:00 +1°C° 0 mm 1 mps 720 mmHg 71%
    12:00 +2°C° 0 mm 1 mps 719 mmHg 69%
    13:00 +1°C° 0 mm 2 mps 719 mmHg 67%
    14:00 +2°C° 0 mm 1 mps 719 mmHg 71%
    15:00 +1°C° 0 mm 1 mps 718 mmHg 76%
    16:00 0°C° 0 mm 1 mps 718 mmHg 80%
    17:00 0°C° 0 mm 1 mps 718 mmHg 83%
    18:00 -2°C° 0 mm 2 mps 718 mmHg 86%
    19:00 -3°C° 0 mm 2 mps 718 mmHg 88%
    20:00 -3°C° 0.2 mm 2 mps 718 mmHg 89%
    21:00 -2°C° 0.2 mm 2 mps 718 mmHg 90%
    22:00 -2°C° 0.2 mm 2 mps 717 mmHg 91%
    23:00 -3°C° 0.1 mm 2 mps 717 mmHg 91%

    Tomorrow, 21 January, Sunday

    Time Temperature Precipitation Wind Pressure Humidity
    00:00 -3°C° 0.1 mm 2 mps 717 mmHg 91%
    01:00 -3°C° 0.1 mm 2 mps 717 mmHg 91%
    02:00 -3°C° 0.1 mm 2 mps 717 mmHg 91%
    03:00 -3°C° 0.1 mm 2 mps 717 mmHg 92%
    04:00 -3°C° 0.1 mm 2 mps 717 mmHg 92%
    05:00 -3°C° 0.1 mm 2 mps 716 mmHg 91%
    06:00 -3°C° 0.1 mm 2 mps 716 mmHg 91%
    07:00 -3°C° 0.1 mm 2 mps 716 mmHg 91%
    08:00 -2°C° 0 mm 3 mps 716 mmHg 87%
    09:00 -2°C° 0 mm 3 mps 716 mmHg 84%
    10:00 -1°C° 0 mm 3 mps 716 mmHg 80%
    11:00 -1°C° 0.3 mm 3 mps 716 mmHg 81%
    12:00 -1°C° 0.3 mm 3 mps 716 mmHg 82%
    13:00 -1°C° 0.3 mm 3 mps 716 mmHg 83%
    14:00 -1°C° 0.6 mm 2 mps 716 mmHg 87%
    15:00 -2°C° 0.6 mm 2 mps 716 mmHg 90%
    16:00 0°C° 0.6 mm 1 mps 716 mmHg 94%
    17:00 0°C° 0.5 mm 1 mps 717 mmHg 95%
    18:00 0°C° 0.5 mm 1 mps 717 mmHg 95%
    19:00 0°C° 0.5 mm 1 mps 717 mmHg 96%
    20:00 -2°C° 0.4 mm 2 mps 718 mmHg 95%
    21:00 -2°C° 0.4 mm 3 mps 718 mmHg 95%
    22:00 -2°C° 0.4 mm 3 mps 719 mmHg 94%
    23:00 -4°C° 0.4 mm 4 mps 719 mmHg 94%

    Day after tomorrow, 22 January, Monday

    Time Temperature Precipitation Wind Pressure Humidity
    00:00 -4°C° 0.4 mm 4 mps 720 mmHg 93%
    01:00 -5°C° 0.4 mm 5 mps 720 mmHg 93%
    02:00 -4°C° 0.3 mm 4 mps 720 mmHg 92%
    03:00 -5°C° 0.3 mm 4 mps 721 mmHg 92%
    04:00 -5°C° 0.3 mm 4 mps 721 mmHg 92%
    05:00 -5°C° 0.2 mm 4 mps 722 mmHg 92%
    06:00 -7°C° 0.2 mm 4 mps 722 mmHg 92%
    07:00 -6°C° 0.2 mm 3 mps 723 mmHg 92%
    08:00 -6°C° 0.1 mm 3 mps 723 mmHg 91%
    09:00 -5°C° 0.1 mm 3 mps 723 mmHg 90%
    10:00 -5°C° 0.1 mm 3 mps 724 mmHg 88%
    11:00 -5°C° 0 mm 3 mps 724 mmHg 87%
    12:00 -4°C° 0 mm 2 mps 724 mmHg 86%
    13:00 -3°C° 0 mm 2 mps 724 mmHg 85%
    14:00 -4°C° 0 mm 2 mps 724 mmHg 87%
    15:00 -4°C° 0 mm 2 mps 725 mmHg 89%
    16:00 -3°C° 0 mm 1 mps 725 mmHg 91%
    17:00 -3°C° 0 mm 1 mps 725 mmHg 92%
    18:00 -4°C° 0 mm 1 mps 725 mmHg 93%
    19:00 -4°C° 0 mm 1 mps 726 mmHg 94%
    20:00 -4°C° 0 mm 1 mps 726 mmHg 94%
    21:00 -6°C° 0 mm 1 mps 726 mmHg 94%
    22:00 -6°C° 0 mm 1 mps 726 mmHg 94%
    23:00 -6°C° 0 mm 1 mps 726 mmHg 94%

    23 January, Tuesday

    Time Temperature Precipitation Wind Pressure Humidity
    00:00 -6°C° 0 mm 1 mps 726 mmHg 93%
    01:00 -6°C° 0 mm 1 mps 726 mmHg 93%
    02:00 -6°C° 0 mm 1 mps 727 mmHg 92%
    03:00 -6°C° 0 mm 1 mps 727 mmHg 92%
    04:00 -6°C° 0 mm 1 mps 727 mmHg 91%
    05:00 -6°C° 0 mm 1 mps 728 mmHg 91%
    06:00 -6°C° 0 mm 1 mps 728 mmHg 91%
    07:00 -6°C° 0 mm 1 mps 729 mmHg 91%
    08:00 -4°C° 0 mm 1 mps 730 mmHg 88%
    09:00 -3°C° 0 mm 1 mps 730 mmHg 85%
    10:00 -2°C° 0 mm 1 mps 731 mmHg 83%
    11:00 -1°C° 0 mm 1 mps 732 mmHg 81%
    12:00 0°C° 0 mm 1 mps 732 mmHg 78%
    13:00 +1°C° 0 mm 1 mps 732 mmHg 76%
    14:00 0°C° 0 mm 1 mps 732 mmHg 80%
    15:00 -2°C° 0 mm 0 mps 733 mmHg 83%
    16:00 -3°C° 0 mm 0 mps 733 mmHg 87%
    17:00 -3°C° 0 mm 1 mps 733 mmHg 87%
    18:00 -3°C° 0 mm 1 mps 733 mmHg 87%
    19:00 -4°C° 0 mm 1 mps 734 mmHg 88%
    20:00 -4°C° 0 mm 1 mps 734 mmHg 87%
    21:00 -4°C° 0 mm 1 mps 734 mmHg 86%
    22:00 -6°C° 0 mm 2 mps 734 mmHg 85%
    23:00 -6°C° 0 mm 2 mps 734 mmHg 84%

    24 January, Wednesday

    Time Temperature Precipitation Wind Pressure Humidity
    00:00 -6°C° 0 mm 2 mps 734 mmHg 84%
    01:00 -6°C° 0 mm 2 mps 734 mmHg 84%
    02:00 -6°C° 0 mm 2 mps 734 mmHg 84%
    03:00 -6°C° 0 mm 2 mps 734 mmHg 84%
    04:00 -5°C° 0 mm 2 mps 734 mmHg 84%
    05:00 -5°C° 0 mm 2 mps 734 mmHg 85%
    06:00 -5°C° 0 mm 2 mps 735 mmHg 86%
    07:00 -5°C° 0 mm 2 mps 735 mmHg 87%
    08:00 -4°C° 0 mm 2 mps 735 mmHg 86%
    09:00 -4°C° 0 mm 3 mps 735 mmHg 85%
    10:00 -2°C° 0 mm 3 mps 735 mmHg 84%
    11:00 -1°C° 0 mm 3 mps 735 mmHg 85%
    12:00 0°C° 0 mm 3 mps 735 mmHg 86%
    13:00 0°C° 0 mm 3 mps 735 mmHg 87%
    14:00 0°C° 0 mm 3 mps 735 mmHg 88%
    15:00 -1°C° 0 mm 3 mps 735 mmHg 88%
    16:00 -1°C° 0 mm 3 mps 735 mmHg 89%
    17:00 -2°C° 0 mm 3 mps 735 mmHg 90%
    18:00 -2°C° 0 mm 3 mps 735 mmHg 90%
    19:00 -4°C° 0 mm 3 mps 735 mmHg 91%
    20:00 -4°C° 0 mm 3 mps 735 mmHg 90%
    21:00 -4°C° 0 mm 3 mps 735 mmHg 90%
    22:00 -4°C° 0 mm 3 mps 735 mmHg 90%
    23:00 -4°C° 0 mm 3 mps 735 mmHg 90%

    25 January, Thursday

    Time Temperature Precipitation Wind Pressure Humidity
    00:00 -4°C° 0 mm 3 mps 735 mmHg 90%
    01:00 -4°C° 0 mm 3 mps 734 mmHg 90%
    02:00 -4°C° 0 mm 3 mps 734 mmHg 89%
    03:00 -4°C° 0 mm 3 mps 734 mmHg 89%
    04:00 -4°C° 0 mm 3 mps 733 mmHg 89%
    05:00 -4°C° 0 mm 3 mps 733 mmHg 88%
    06:00 -4°C° 0 mm 3 mps 733 mmHg 88%
    07:00 -4°C° 0 mm 3 mps 733 mmHg 87%
    08:00 -2°C° 0 mm 3 mps 733 mmHg 86%
    09:00 -1°C° 0 mm 3 mps 733 mmHg 85%
    10:00 -1°C° 0 mm 3 mps 733 mmHg 83%
    11:00 0°C° 0 mm 3 mps 732 mmHg 83%
    12:00 +1°C° 0 mm 3 mps 732 mmHg 83%
    13:00 +1°C° 0 mm 3 mps 732 mmHg 82%
    14:00 +1°C° 0 mm 3 mps 731 mmHg 83%
    15:00 0°C° 0 mm 3 mps 731 mmHg 84%
    16:00 0°C° 0 mm 3 mps 731 mmHg 84%
    17:00 -1°C° 0 mm 3 mps 731 mmHg 84%
    18:00 -2°C° 0 mm 3 mps 731 mmHg 84%
    19:00 -2°C° 0 mm 3 mps 731 mmHg 84%
    20:00 -2°C° 0 mm 3 mps 731 mmHg 83%
    21:00 -2°C° 0 mm 3 mps 731 mmHg 82%
    22:00 -2°C° 0 mm 3 mps 730 mmHg 81%
    23:00 -4°C° 0 mm 3 mps 730 mmHg 81%
    Show more